Regional Weather Roundup
Issued by NWS

Home | Current Version | Previous Version | Graphics & Text | Print | Product List | Glossary On
Versions: 1 2 3 4 5 6 7 8 9 10 11 12 13 14 15 16 17 18 19 20 21 22 23 24 25 26 27 28 29 30 31 32 33 34 35 36 37 38 39 40 41 42 43 44 45 46 47 48 49 50
902
ASUS43 KFSD 191010
RWRSD

WEATHER ROUNDUP FOR SOUTH DAKOTA
NATIONAL WEATHER SERVICE SIOUX FALLS SD
500 AM CDT THU APR 19 2018

NOTE: "FAIR" INDICATES FEW OR NO CLOUDS BELOW 12,000 FEET WITH NO
SIGNIFICANT WEATHER AND/OR OBSTRUCTIONS TO VISIBILITY.


SDZ001>005-009-010-012>017-191100-
NORTHWEST AND NORTH CENTRAL SOUTH DAKOTA

CITY           SKY/WX    TMP DP  RH WIND       PRES   REMARKS
BUFFALO          N/A     33  29  85 E8        30.23  WCI  26
FAITH            N/A     31  30  96 S12       30.32R WCI  22
MOBRIDGE       FAIR      26  22  84 N6        30.34R WCI  19
$$

SDZ012>016-024>037-041>051-057-063-072>074-191100-
SOUTHWEST AND SOUTH CENTRAL SOUTH DAKOTA

CITY           SKY/WX    TMP DP  RH WIND       PRES   REMARKS
RAPID CTY ARPT FAIR      29  27  92 CALM      30.31R
PIERRE         FAIR      27  25  92 CALM      30.36R
CUSTER         FAIR      26  20  77 CALM      30.28R
ELLSWORTH AFB  FAIR      34  28  80 S5        30.30R WCI  29
PHILIP         FAIR      27  27 100 CALM      30.35R
PINE RIDGE     FAIR      29  28  96 CALM      30.33R
SPEARFISH      FAIR      32  27  80 CALM      30.28R
WINNER         FAIR      31  26  82 CALM      30.36S
$$

SDZ004>011-016>023-039-040-191100-
NORTHEAST SOUTH DAKOTA

CITY           SKY/WX    TMP DP  RH WIND       PRES   REMARKS
ABERDEEN       FAIR      25  23  92 CALM      30.36R
WATERTOWN      PTCLDY    27  26  96 CALM      30.34R
BROOKINGS      PTCLDY    28  26  92 CALM      30.36R
SISSETON         N/A     32  29  88 CALM      30.35R
$$

SDZ017-020-022-023-036>040-048>070-191100-
SOUTHEAST SOUTH DAKOTA

CITY           SKY/WX    TMP DP  RH WIND       PRES   REMARKS
SIOUX FALLS    PTCLDY    29  23  78 N3        30.36R
HURON          FAIR      24  22  91 W5        30.37R WCI  18
CHAMBERLAIN    FAIR      28  28 100 W3        30.37R
MITCHELL       FAIR      27  26  96 W5        30.38R WCI  22
YANKTON        CLEAR     28  27  96 NW10      30.37R WCI  19
$$

ABBREVIATIONS USED IN REMARKS
   TC - TEMPERATURE IN CELSIUS
  WCI - WIND CHILL INDEX
   HX - HEAT INDEX
  VSB - VISIBILITY





USA.gov is the U.S. government's official web portal to all federal, state and local government web resources and services.